レモン彗星

C/2020 H7 ( Lemmon )

English version
Home page
Updated on December 11, 2020

---------------------------------------------------------------------

・ プロフィール

発見日 2020年4月29日
発見光度 20.6等
発見者 G. J. Leonard (Mount Lemmon Survey)

・ 写真集

・ 軌道要素

Epoch 2020 May 31.0 TT = JDT 2459000.5
T 2020 June 3.52687 TT                                  Rudenko
q   4.4200813            (2000.0)            P               Q
z  +0.0001496      Peri.   82.77194     -0.32246140     -0.85149414
 +/-0.0000112      Node   323.52879     -0.86894842     +0.43953110
e   0.9993389      Incl.  135.92291     +0.37542948     +0.28595480
From 174 observations 2020 Apr. 29-Sept. 13, mean residual 0".4.

・ 光度変化

        m1 = 10.5 + 5 logΔ + 10.0 log r

---------------------------------------------------------------------

軌道要素はM.P.E.C. 2020-S188に掲載されたものです。
光度グラフはComet for Windowsで作成したものです。

---------------------------------------------------------------------

Copyright(C) Seiichi Yoshida (comet@aerith.net). All rights reserved.